Regional Weather Roundup
Issued by NWS Wakefield, VA

Home | Current Version | Previous Version | Graphics & Text | Print | Product List | Glossary On
Versions: 1 2 3 4 5 6 7 8 9 10 11 12 13 14 15 16 17 18 19 20 21 22 23 24 25 26 27 28 29 30 31 32 33 34 35 36 37 38 39 40 41 42 43 44 45 46 47 48 49 50
611
ASUS41 KAKQ 080715
RWRAKQ

REGIONAL WEATHER ROUNDUP
NATIONAL WEATHER SERVICE WAKEFIELD VA
200 AM EST THU DEC 08 2016

Note: "fair" indicates few or no clouds below 12,000 feet with no
significant weather and/or obstructions to visibility. * = Denotes
station may not report precipitation (e.g., rain,snow,etc.),
thunder or fog.

VAZ042-051-052>054-056-080800-
NORTHERN VIRGINIA

CITY           SKY/WX    TMP DP  RH WIND       PRES   REMARKS
WASH NATIONAL  MOCLDY    37  34  89 N3        30.07S
DULLES         MOCLDY    29  27  92 CALM      30.06F
FORT BELVOIR   PTCLDY    30  29  94 CALM      30.07R
QUANTICO       CLOUDY    35  32  88 NW5       30.08S
FREDERICKSBRG* MOCLDY    34  34 100 CALM      30.06S
STAFFORD*      MOCLDY    31  31 100 CALM      30.10S
WARRENTON      CLOUDY    32  28  86 CALM      30.05S
CULPEPER*      CLOUDY    31  31  99 CALM      30.07S
MANASSAS*        N/A    N/A N/A N/A MISG        N/A
LEESBURG*      CLOUDY    32  32 100 MISG      30.06F
WINCHESTER     CLOUDY    30  27  86 CALM      30.04F
FRONT ROYAL*   FAIR      30  30 100 S3        30.04F
LURAY*         PTSUNNY   30  30 100 CALM      30.04F
$$

VAZ048-049-060>072-079>083-080800-
CENTRAL AND SOUTH CENTRAL VIRGINIA

CITY           SKY/WX    TMP DP  RH WIND       PRES   REMARKS
RICHMOND       CLOUDY    40  36  86 CALM      30.05S
CHESTERFIELD*  FAIR      37  23  56 CALM      30.06F
PETERSBURG*    PTCLDY    36  35  95 CALM      30.06S
HANOVER        CLOUDY    35  33  92 CALM      30.06F
TAPPAHANNOCK*  CLOUDY    33  33 100 CALM      30.07S
QUINTON*       FAIR      35  34  97 CALM      30.05F
CHARLOTTSVILLE CLOUDY    36  32  85 CALM      30.04R
GORDONSVILLE*  FAIR      32  32 100 CALM      30.03F
ORANGE*          N/A     32  32 100 CALM      30.06S
LOUISA*        MOCLDY    36  36 100 CALM      30.04R
BUMPASS*       FAIR      33  33 100 CALM      30.05R
FARMVILLE*     CLOUDY    38  38  99 CALM      30.03S
CREWE*         FAIR      43  43 100 S5        30.05R
FORT PICKETT*  FAIR      42  38  88 CALM      30.05R
CHASE CITY*    PTSUNNY   39  38  95 CALM      30.04R
CLARKSVILLE*   FAIR      41  41 100 CALM      30.04R
SOUTH HILL*    PTCLDY    42  41  99 CALM      30.09F
LAWRENCEVILLE* FAIR      42  40  96 CALM      30.04F
EMPORIA*       PTCLDY    41  41 100 CALM      30.07F
$$

VAZ088>098-080800-
SOUTHEAST VIRGINIA

CITY           SKY/WX    TMP DP  RH WIND       PRES   REMARKS
NORFOLK        PTCLDY    39  39 100 CALM      30.07S
VIRGINIA BEACH MOCLDY    36  34  92 CALM      30.07R
NORFOLK NAVAL  PTCLDY    40  38  93 E3        30.07F
WEST POINT*    CLOUDY    33  32  98 CALM      30.07F
SALUDA*        FAIR      36  36 100 S3        30.06S
NEWPORT NEWS   PTCLDY    35  35 100 CALM      30.06F
LANGLEY AFB    PTCLDY    38  38  99 SE3       30.05F
FORT EUSTIS    MOCLDY    39  37  91 CALM      30.03F
WILLIAMSBURG*  PTCLDY    39  39 100 CALM      30.06F
HR EXEC AP*    CLOUDY    36  34  93 CALM      30.06S
FRANKLIN*      CLOUDY    42  40  93 S3        30.06F
US460-WAKEFLD  CLOUDY    39  39 100 CALM      30.06F FOG
$$

VAZ020-022-025-037-045-080800-
WEST CENTRAL AND SOUTHWEST VIRGINIA

CITY           SKY/WX    TMP DP  RH WIND       PRES   REMARKS
STAUNTON*      CLOUDY    29  28  96 CALM      30.06R
WAYNESBORO*    FAIR      32  30  93 CALM      30.02S
HOT SPRINGS VA CLOUDY    34   7  32 W9        29.96F
LYNCHBURG      PTCLDY    35  33  92 CALM      30.04S
DANVILLE       PTCLDY    36  36 100 NE3       30.02F
SOUTH BOSTON*  FAIR      35  34  96 CALM      30.04S
MARTINSVILLE   CLOUDY    33  32  96 CALM      30.05F
ROANOKE        MOCLDY    41  31  67 NW6       30.06R
BLACKSBURG     CLOUDY    38  31  77 W5        30.06S
DUBLIN*        CLOUDY    38  33  80 CALM      30.05S
MARION*        PTCLDY    36  30  78 W3        30.07S
HILLSVILLE*    CLOUDY    39  32  76 CALM      30.02R
RICHLANDS*     CLOUDY    33  29  85 CALM      30.07F
WISE*          CLOUDY    34  28  80 NW7       30.09R
ABINGDON*      CLOUDY    40  32  73 CALM      30.07R
$$

MDZ021>025-VAZ099-100-080800-
SOUTHERN MARYLAND AND THE DELMARVA PENINSULA

CITY           SKY/WX    TMP DP  RH WIND       PRES   REMARKS
PATUXENT RIVER PTCLDY    33  32  96 W5        30.06R
BAY BRIDGE APT CLOUDY    41  34  75 W8        30.06R
LEONARDTOWN    PTCLDY    32  30  93 CALM      30.06F
DOVER          PTCLDY    32  32 100 CALM      30.04S
GEORGETOWN     CLOUDY    31  30  96 CALM      30.06S FOG
EASTON         CLOUDY    34  32  93 CALM      30.10R
CAMBRIDGE      CLOUDY    30  30 100 CALM      30.05S
SALISBURY      PTCLDY    31  29  92 CALM      30.05F
OCEAN CITY     PTCLDY    33  32  96 CALM      30.06S FOG
WALLOPS ISLAND PTCLDY    33  33 100 W3        30.07S
ACCOMACK*      CLOUDY    34  33  97 CALM      30.06S
$$

NCZ012>017-030>032-080800-
NORTH CENTRAL AND EASTERN NORTH CAROLINA

CITY           SKY/WX    TMP DP  RH WIND       PRES   REMARKS
ROANOKE RAPIDS PTSUNNY   45  43  93 CALM      30.06F
RALEIGH        CLOUDY    50  44  80 SE6       30.04F
ELIZABETH CITY CLOUDY    41  40  96 CALM      30.08S
AHOSKIE*       CLOUDY    45  42  92 SE3       30.07F
EDENTON*       PTCLDY    44  42  93 CALM      30.09S
CURRITUCK*     PTCLDY    40  40 100 CALM      30.08F
KILL DEVIL HLS PTCLDY    46  46 100 CALM      30.06F
MANTEO         PTCLDY    40  40 100 CALM      30.08S FOG
CAPE HATTERAS  NOT AVBL
TARBORO*       NOT AVBL
GOLDSBORO      CLOUDY    50  48  95 SE6       30.03F
WASHINGTON     MOCLDY    42  41  98 CALM      30.08S
GREENVILLE     CLOUDY    45  45 100 CALM      30.09S
NEW BERN       CLOUDY    47  45  93 CALM      30.08F
WILMINGTON     MOCLDY    44  44 100 CALM      30.07S
$$

VAZ048-080800-
ELSEWHERE

CITY           SKY/WX    TMP DP  RH WIND       PRES   REMARKS
HARRISBURG PA  CLOUDY    35  24  64 CALM      30.03S
BALTIMORE      CLOUDY    31  31 100 W3        30.06R
ANNAPOLIS      PTCLDY    38  35  89 CALM      30.07R
ANDREWS AFB    PTCLDY    35  30  80 CALM      30.05S
PHILADELPHIA   CLOUDY    37  30  75 W9        30.04S
HENDERSON NC   MOCLDY    44  40  86 S5        30.04S
GREENSBORO     CLOUDY    46  42  86 SW5       30.01S
ROCKY MOUNT    CLOUDY    46  46 100 CALM      30.06S
$$

VAZ100-080800-
MARINE

STATION/POSITION TIME  TEMP    WIND        PRES    WAVE   SWELL
                       AIR SEA DIR/SP/G            HT/PER HT/PER
                 (UTC) (F)     (DEG/KT/KT) (MB)    (FT/S) (FT/S)
BRANDYWINE LGT   0648          270/  9/ 10   N/A
CAPE MAY NJ      0648      48  240/  6/  7 1016.9S
LEWES DE         0648      49  240/  5/  7 1017.4S
OCEAN-CITY-INLET 0648      50  290/  4/  5 1018.1R
WACHAPREAGUE VA  0648      49  290/  1/  1 1017.9F
GOOSES REEF MD   0650   47     230/  4/  4 1018.3S
COVE POINT MD    0648          240/  2/  3 1018.1F
SOLOMONS ISLAND  0648      50  320/  3/  4   N/A
BISHOPS HEAD MD  0648      47  190/  5/  5 1017.8F
PINEY POINT MD   0648          250/  2/  3   N/A
POTOMAC MD       0650   46     240/  6/  8 1016.8F
CAMBRIDGE MD     0648      47  190/  3/  3 1017.0S
LEWISETTA VA     0648      48  240/  4/  5 1017.6R
RAPPAHANNOCK LGT 0648          170/  8/  8 1018.5S
STINGRAY PT      0650   47     200/  8/  8 1018.3F
YORK RVR RNG VA  0648          180/  8/  9 1017.5F
YORKTOWN VA      0648      51  150/  4/  5 1017.5F
JAMESTOWN VA     0650   45     160/  8/  8   N/A
DOMINION TERM VA 0648          140/  8/ 10 1017.9F
KIPTOPEKE VA     0648      51  140/  2/  2   N/A
CHES BAY BRIDGE  0648      53  200/  4/  5 1018.1S
CAPE HENRY VA    0648          210/  3/  3   N/A
WILLOUBY STN VA  0648          160/  6/  6 1019.0S
S CRANEY ISL VA  0648          170/  5/  5 1017.9F
CAPE HENRY BUOY  0642      54                N/A     4/ 9   2/11
CAPE CHARLES BUO 0656      54                N/A     4/ 9   2/11
OFFSHORE WE BUOY 0651      56                N/A     5/ 8   2/12
DUCK PIER NC     0648      54  270/  5/  5 1017.7F
44100 DUCK FRF   0635      55                N/A     5/10   2/11
OREGON INLET NC  0642      56  280/  5/  7 1018.5F
HATTERAS NC      0648      60  350/  5/  5 1018.2F
$$




USA.gov is the U.S. government's official web portal to all federal, state and local government web resources and services.